Location: Ferchesar
(52.6477°N, 12.4298°E)
Time: 12:35:37
(UTC+02:00)

Transit 4A - Pass Details

Date: 27 February 2021
Orbit: 869 x 975 km, 66.8° (Epoch: 15 April)

Event Time Altitude Azimuth Distance (km) Brightness Sun altitude
Rises 16:57:12 0° 309° (NW) 3,633 11.4 6.2°
Reaches altitude 10° 17:00:17 10° 322° (NW) 2,669 10.6 5.7°
Maximum altitude 17:05:19 25° 16° (NNE) 1,788 9.1 5.0°
Drops below altitude 10° 17:10:14 10° 71° (ENE) 2,603 9.6 4.3°
Sets 17:13:12 0° 84° (E) 3,524 10.3 3.9°
